Regional Weather Roundup
Issued by NWS

Home | Current Version | Previous Version | Graphics & Text | Print | Product List | Glossary On
Versions: 1 2 3 4 5 6 7 8 9 10 11 12 13 14 15 16 17 18 19 20 21 22 23 24 25 26 27 28 29 30 31 32 33 34 35 36 37 38 39 40 41 42 43 44 45 46 47 48 49 50
174
ASUS43 KTOP 240159
RWRKS

WEATHER ROUNDUP FOR KANSAS
NATIONAL WEATHER SERVICE GOODLAND KS
900 PM CDT TUE MAY 23 2017

NOTE:  "FAIR" INDICATES FEW OR NO CLOUDS BELOW 12,000 FEET WITH NO
SIGNIFICANT WEATHER AND/OR OBSTRUCTIONS TO VISIBILITY.

KSZ001>006-013>018-027>032-041>047-240300-
NORTHWEST KANSAS

CITY           SKY/WX    TMP DP  RH WIND       PRES   REMARKS
GOODLAND       PTCLDY    50  38  63 NE6       30.01S
HAYS           PTCLDY    53  41  63 N9        29.95S
HILL CITY      CLEAR     55  39  54 N10       29.97S
RUSSELL        MOCLDY    55  41  59 N15       29.92S
$$

KSZ061>065-074>080-084>089-240300-
SOUTHWEST KANSAS

CITY           SKY/WX    TMP DP  RH WIND       PRES   REMARKS
DODGE CITY     CLEAR     51  42  71 NW8       29.97S
ELKHART          N/A     56  32  40 N5          N/A
GARDEN CITY    CLEAR     52  38  58 NW8       29.99S
GREAT BEND     MOCLDY    53  42  66 N10       29.94R
LIBERAL        PTCLDY    53  41  63 N8        30.01R
$$

KSZ066>073-081>083-090>101-240300-
SOUTHEAST KANSAS

CITY           SKY/WX    TMP DP  RH WIND       PRES   REMARKS
CHANUTE        CLOUDY    58  46  64 NW9       29.82F
COFFEYVILLE    CLOUDY    59  48  67 NW8       29.83S
HUTCHINSON     CLOUDY    57  42  57 NW12      29.90S
MEDICINE LODGE   N/A     56  43  61 NW6       29.92S
NEWTON         CLOUDY    53  43  68 N13       29.89S
PARSONS        CLOUDY    56  50  80 NW6       29.84S
WICHITA INTL   CLOUDY    59  42  53 N18       29.89R
WICHITA JABRA  CLOUDY    58  42  55 NW12      29.88R
WINFIELD       PTCLDY    53  47  79 W6        29.89R
$$

KSZ007>012-019>026-033>040-048>060-102>105-240300-
NORTHEAST KANSAS

CITY           SKY/WX    TMP DP  RH WIND       PRES   REMARKS
CONCORDIA      CLOUDY    53  44  71 NW14      29.90R
EMPORIA        CLOUDY    54  47  77 NW6       29.85R
LAWRENCE       CLOUDY    56  53  90 NW6       29.82S
MANHATTAN      CLOUDY    56  46  69 VRB5      29.87R
OLATHE IND     CLOUDY    53  51  93 NW6       29.81F
OLATHE EXE     CLOUDY    53  53 100 W5        29.80F
SALINA         CLOUDY    58  44  60 N13       29.90R
TOPEKA BILLARD CLOUDY    55  50  83 W8        29.83S
TOPEKA FORBES  CLOUDY    55  52  89 W8        29.83S
$$




USA.gov is the U.S. government's official web portal to all federal, state and local government web resources and services.